This demonstration page uses our WeatherBlox Daily Observations layout. Learn more.

Left ArrowRight Arrow

34.16533, -84.80231

Hourly Observations for September 29, 2017

Temp ( °F °C ) Dew Point ( °F °C ) Humidity (%) Winds ( mph kmh ) Pressure ( in mb ) Visibility ( mi km ) Precip ( " mm )
12:53 am 00:53 Clear 67 19.4 65 18.3 93 93 Calm 29.96 1014 10 16 0.00 0.00
1:53 am 01:53 Clear 66 18.9 64 17.8 93 93 Calm 29.96 1014 10 16 0.00 0.00
2:53 am 02:53 Mostly Clear 66 18.9 63 17.2 90 90 Calm 29.96 1014 10 16 0.00 0.00
3:53 am 03:53 Clear 64 17.8 63 17.2 96 96 Calm 29.96 1014 10 16 0.00 0.00
4:53 am 04:53 Clear 64 17.8 63 17.2 96 96 Calm 29.96 1015 10 16 0.00 0.00
5:53 am 05:53 Clear 64 17.8 62 16.7 93 93 Calm 29.98 1015 10 16 0.00 0.00
6:53 am 06:53 Clear 63 17.2 62 16.7 97 97 Calm 29.99 1016 10 16 0.00 0.00
7:53 am 07:53 Sunny 63 17.2 62 16.7 97 97 Calm 30.01 1016 10 16 0.00 0.00
8:53 am 08:53 Sunny 66 18.9 62 16.7 87 87 NNE 3 6 30.03 1017 10 16 0.00 0.00
9:53 am 09:53 Sunny 70 21.1 63 17.2 79 79 Calm 30.03 1017 10 16 0.00 0.00
10:53 am 10:53 Sunny 76 24.4 65 18.3 69 69 NE 6 9 30.03 1017 10 16 0.00 0.00
11:53 am 11:53 Sunny 80 26.7 66 18.9 62 62 VRB 6 9 30.02 1017 10 16 0.00 0.00
12:53 pm 12:53 Sunny 83 28.3 66 18.9 57 57 Calm 30.00 1016 10 16 0.00 0.00
1:53 pm 13:53 Sunny 86 30 67 19.4 53 53 NNE 5 7 29.99 1016 10 16 0.00 0.00
2:53 pm 14:53 Sunny 86 30 66 18.9 51 51 VRB 5 7 29.97 1015 10 16 0.00 0.00
3:53 pm 15:53 Sunny 86 30 67 19.4 53 53 VRB 3 6 29.96 1015 10 16 0.00 0.00
4:53 pm 16:53 Sunny 84 28.9 68 20 59 59 VRB 5 7 29.96 1015 10 16 0.00 0.00
5:53 pm 17:53 Sunny 84 28.9 67 19.4 57 57 N 9 15 29.96 1015 10 16 0.00 0.00
6:53 pm 18:53 Sunny 80 26.7 66 18.9 62 62 N 7 11 29.98 1015 10 16 0.00 0.00
7:53 pm 19:53 Clear 76 24.4 65 18.3 69 69 N 3 6 30.01 1016 10 16 0.00 0.00
8:53 pm 20:53 Clear 73 22.8 63 17.2 71 71 Calm 30.02 1017 10 16 0.00 0.00
9:53 pm 21:53 Clear 72 22.2 62 16.7 71 71 Calm 30.04 1017 10 16 0.00 0.00
10:53 pm 22:53 Clear 70 21.1 60 15.6 71 71 NNW 3 6 30.04 1017 10 16 0.00 0.00
11:53 pm 23:53 Clear 68 20 58 14.4 70 70 VRB 3 6 30.05 1018 10 16 0.00 0.00

Powered by AerisWeather